Oklahoma City / Page Muni, OK

8:09 PM CDT on September 22, 2017 (GMT -0500)
Oklahoma City / Page Muni

Weather History for KRCE - November, 2012

Change the Weather History Date:

Monday, November 12, 2012

  Actual Average (KPWA) Record (KPWA)
Temperature  
Mean Temperature 38 °F -  
Max Temperature 50 °F 60 °F 82 °F (2005)
Min Temperature 26 °F 35 °F 21 °F (2014)
Degree Days  
Heating Degree Days 27    
Moisture  
Dew Point 24 °F    
Average Humidity 64    
Maximum Humidity 86    
Minimum Humidity 32    
Precipitation  
Precipitation 0.00 in - - ()
Sea Level Pressure  
Sea Level Pressure 30.45 in    
Wind  
Wind Speed 6 mph (WSW)    
Max Wind Speed 10 mph    
Max Gust Speed -    
Visibility 10 miles    
Events      
Averages and records for this station are not official NWS values.
T = Trace of Precipitation, MM = Missing Value Source: NWS Daily Summary

Daily Weather History Graph

Daily Weather History Graph

Search for Another Location

Airport or City:

Trip Planner

Search our weather history database for the weather conditions in past years. The results will help you decide how hot, cold, wet, or windy it might be!

Date:

Astronomy

Nov. 12, 2012 Rise Set
Actual Time 7:04 AM CST 5:26 PM CST
Civil Twilight 6:37 AM CST 5:53 PM CST
Nautical Twilight 6:06 AM CST 6:23 PM CST
Astronomical Twilight 5:36 AM CST 6:54 PM CST
Moon 5:33 AM CST (11/12) 4:31 PM CST (11/12)
Length of Visible Light 11h 16m
Length of Day
10h 22m
Waning Crescent, 2% of the Moon is Illuminated
Nov 12
Waning Crescent
Nov 13
New
Nov 20
First Quarter
Nov 28
Full
Dec 6
Last Quarter

Hourly Weather History & Observations

Time (CST) Temp. Windchill Dew Point Humidity Pressure Visibility Wind Dir Wind Speed Gust Speed Precip Events Conditions
12:15 AM 28.4 °F 22.2 °F 23.0 °F 80% 30.32 in 10.0 mi NNW 5.8 mph - N/A   Clear
12:55 AM 28.4 °F 21.2 °F 24.8 °F 86% 30.33 in 10.0 mi North 6.9 mph - N/A   Clear
1:15 AM 28.4 °F 21.2 °F 24.8 °F 86% 30.33 in 10.0 mi North 6.9 mph - N/A   Clear
1:35 AM 28.4 °F 21.2 °F 24.8 °F 86% 30.34 in 10.0 mi North 6.9 mph - N/A   Clear
1:55 AM 28.4 °F 21.2 °F 24.8 °F 86% 30.35 in 10.0 mi North 6.9 mph - N/A   Clear
2:15 AM 28.4 °F 21.2 °F 23.0 °F 80% 30.36 in 10.0 mi NNW 6.9 mph - N/A   Clear
2:35 AM 28.4 °F 22.2 °F 24.8 °F 86% 30.37 in 10.0 mi NNW 5.8 mph - N/A   Clear
2:55 AM 28.4 °F 22.2 °F 23.0 °F 80% 30.38 in 10.0 mi NNW 5.8 mph - N/A   Clear
3:15 AM 28.4 °F 22.2 °F 23.0 °F 80% 30.38 in 10.0 mi NNW 5.8 mph - N/A   Clear
3:35 AM 28.4 °F 23.3 °F 24.8 °F 86% 30.39 in 10.0 mi WNW 4.6 mph - N/A   Clear
3:55 AM 28.4 °F 23.3 °F 23.0 °F 80% 30.39 in 10.0 mi NW 4.6 mph - N/A   Clear
4:15 AM 28.4 °F 23.3 °F 23.0 °F 80% 30.40 in 10.0 mi NW 4.6 mph - N/A   Clear
4:35 AM 28.4 °F 22.2 °F 23.0 °F 80% 30.40 in 10.0 mi NW 5.8 mph - N/A   Clear
4:55 AM 28.4 °F 23.3 °F 23.0 °F 80% 30.41 in 10.0 mi WNW 4.6 mph - N/A   Clear
5:15 AM 28.4 °F 24.6 °F 24.8 °F 86% 30.42 in 10.0 mi WNW 3.5 mph - N/A   Clear
5:35 AM 28.4 °F 22.2 °F 23.0 °F 80% 30.42 in 10.0 mi NW 5.8 mph - N/A   Clear
5:55 AM 26.6 °F 20.0 °F 21.2 °F 80% 30.43 in 10.0 mi NW 5.8 mph - N/A   Clear
6:55 AM 26.6 °F 22.6 °F 23.0 °F 86% 30.44 in 10.0 mi WSW 3.5 mph - N/A   Clear
7:15 AM 26.6 °F 22.6 °F 23.0 °F 86% 30.45 in 10.0 mi SW 3.5 mph - N/A   Clear
7:35 AM 26.6 °F 21.2 °F 23.0 °F 86% 30.46 in 10.0 mi WNW 4.6 mph - N/A   Clear
7:55 AM 28.4 °F 23.3 °F 24.8 °F 86% 30.46 in 10.0 mi NW 4.6 mph - N/A   Clear
8:15 AM 30.2 °F - 24.8 °F 80% 30.48 in 10.0 mi Calm Calm - N/A   Clear
8:35 AM 32.0 °F 28.7 °F 24.8 °F 75% 30.48 in 10.0 mi WSW 3.5 mph - N/A   Clear
8:55 AM 32.0 °F 28.7 °F 26.6 °F 80% 30.49 in 10.0 mi West 3.5 mph - N/A   Clear
9:15 AM 35.6 °F - 26.6 °F 70% 30.49 in 10.0 mi Calm Calm - N/A   Clear
9:55 AM 37.4 °F 34.9 °F 23.0 °F 56% 30.50 in 10.0 mi West 3.5 mph - N/A   Clear
10:15 AM 39.2 °F 35.9 °F 23.0 °F 52% 30.51 in 10.0 mi SW 4.6 mph - N/A   Clear
10:35 AM 41.0 °F 39.0 °F 24.8 °F 53% 30.51 in 10.0 mi West 3.5 mph - N/A   Clear
10:55 AM 41.0 °F 38.0 °F 21.2 °F 45% 30.51 in 10.0 mi West 4.6 mph - N/A   Clear
11:15 AM 44.6 °F 41.4 °F 21.2 °F 39% 30.51 in 10.0 mi West 5.8 mph - N/A   Clear
11:35 AM 44.6 °F 42.2 °F 21.2 °F 39% 30.51 in 10.0 mi WNW 4.6 mph - N/A   Clear
11:55 AM 44.6 °F 40.7 °F 19.4 °F 37% 30.50 in 10.0 mi WSW 6.9 mph - N/A   Clear
12:15 PM 46.4 °F - 21.2 °F 37% 30.49 in 10.0 mi Calm Calm - N/A   Clear
12:35 PM 46.4 °F 42.4 °F 19.4 °F 34% 30.48 in 10.0 mi West 8.1 mph - N/A   Clear
12:55 PM 48.2 °F - 21.2 °F 34% 30.48 in 10.0 mi West 5.8 mph - N/A   Clear
1:15 PM 48.2 °F - 19.4 °F 32% 30.47 in 10.0 mi WSW 6.9 mph - N/A   Clear
1:35 PM 48.2 °F - 23.0 °F 37% 30.47 in 10.0 mi SW 5.8 mph - N/A   Clear
1:55 PM 48.2 °F - 23.0 °F 37% 30.46 in 10.0 mi SW 4.6 mph - N/A   Clear
2:15 PM 48.2 °F - 24.8 °F 40% 30.45 in 10.0 mi South 6.9 mph - N/A   Clear
2:35 PM 50.0 °F - 24.8 °F 37% 30.45 in 10.0 mi South 8.1 mph - N/A   Clear
2:55 PM 50.0 °F - 23.0 °F 35% 30.45 in 10.0 mi South 8.1 mph - N/A   Clear
3:15 PM 50.0 °F - 23.0 °F 35% 30.45 in 10.0 mi SSW 8.1 mph - N/A   Clear
3:35 PM 50.0 °F - 24.8 °F 37% 30.45 in 10.0 mi SSW 8.1 mph - N/A   Clear
3:55 PM 50.0 °F - 26.6 °F 40% 30.45 in 10.0 mi SSW 9.2 mph - N/A   Clear
4:15 PM 48.2 °F - 26.6 °F 43% 30.45 in 10.0 mi SSW 8.1 mph - N/A   Clear
4:35 PM 48.2 °F - 24.8 °F 40% 30.45 in 10.0 mi SSW 8.1 mph - N/A   Clear
4:55 PM 48.2 °F - 24.8 °F 40% 30.45 in 10.0 mi SW 5.8 mph - N/A   Clear
5:15 PM 46.4 °F 44.3 °F 26.6 °F 46% 30.45 in 9.0 mi SSW 4.6 mph - N/A   Clear
5:35 PM 42.8 °F 41.1 °F 28.4 °F 57% 30.45 in 7.0 mi South 3.5 mph - N/A   Clear
5:55 PM 41.0 °F 36.4 °F 28.4 °F 61% 30.45 in 10.0 mi South 6.9 mph - N/A   Clear
6:15 PM 39.2 °F 34.2 °F 26.6 °F 61% 30.45 in 10.0 mi South 6.9 mph - N/A   Clear
6:55 PM 37.4 °F 31.4 °F 26.6 °F 65% 30.45 in 10.0 mi South 8.1 mph - N/A   Clear
7:15 PM 39.2 °F 33.6 °F 26.6 °F 61% 30.45 in 10.0 mi South 8.1 mph - N/A   Clear
7:35 PM 37.4 °F 31.4 °F 26.6 °F 65% 30.45 in 10.0 mi South 8.1 mph - N/A   Clear
7:55 PM 37.4 °F 30.8 °F 26.6 °F 65% 30.46 in 10.0 mi SSE 9.2 mph - N/A   Clear
8:15 PM 37.4 °F 31.4 °F 26.6 °F 65% 30.46 in 10.0 mi South 8.1 mph - N/A   Clear
8:35 PM 37.4 °F 30.3 °F 26.6 °F 65% 30.46 in 10.0 mi South 10.4 mph - N/A   Clear
8:55 PM 37.4 °F 31.4 °F 26.6 °F 65% 30.48 in 10.0 mi South 8.1 mph - N/A   Clear
9:15 PM 37.4 °F 32.1 °F 26.6 °F 65% 30.48 in 9.0 mi SSW 6.9 mph - N/A   Clear
9:35 PM 35.6 °F 29.9 °F 26.6 °F 70% 30.48 in 8.0 mi South 6.9 mph - N/A   Clear
9:55 PM 35.6 °F 29.9 °F 26.6 °F 70% 30.49 in 10.0 mi SSW 6.9 mph - N/A   Clear
10:15 PM 33.8 °F 27.7 °F 26.6 °F 75% 30.49 in 9.0 mi South 6.9 mph - N/A   Clear
10:35 PM 33.8 °F 27.7 °F 26.6 °F 75% 30.49 in 10.0 mi South 6.9 mph - N/A   Clear
10:55 PM 33.8 °F 26.4 °F 26.6 °F 75% 30.49 in 10.0 mi South 9.2 mph - N/A   Clear
11:15 PM 33.8 °F 27.0 °F 26.6 °F 75% 30.49 in 10.0 mi South 8.1 mph - N/A   Clear
11:35 PM 33.8 °F 27.7 °F 26.6 °F 75% 30.48 in 10.0 mi South 6.9 mph - N/A   Clear
11:55 PM 33.8 °F 27.0 °F 26.6 °F 75% 30.48 in 10.0 mi South 8.1 mph - N/A   Clear